COSMOS 1275 DEB, 12692

Orbit data source: Space-Track

COSMOS 1275 DEB, 12692 is space debris in LEO originally from a launch on Thu, 04 Jun 1981 UTC launched from the Plesetsk Missile And Space Complex (PKMTR). Debris objects in space refer to the collection of defunct objects orbiting the Earth. Examples of debris include non-operational satellites, rocket bodies, and fragments generated from explosions, collisions, or faulty payload assembly.

Loading next visibility...
Identifier
12692, 1981-053AL
Orbit
LEO
Last TLE update
12 hours ago
Origin
Manufacturer
Unknown
Mission
Spacecraft
Bus & Motor
Unknown
Mass
Unknown
Launch date (UTC)
1981-06-04 (44 years ago)
Launch vehicle
Unknown
Launch site
Plesetsk Missile And Space Complex (PKMTR)
Object type
Payload
Rocket body
Debris
Shape & HBR
Unknown
Radar Cross Section
0.500 m², Medium (>0.1 m² and < 1m²)

Expand to show TLE details & history

TLE from 12 hours ago
0 COSMOS 1275 DEB
1 12692U 81053AL  25128.72031355  .00001827  00000-0  65597-3 0  9994
2 12692  82.8992   5.8118 0067921 168.0713 192.2104 14.32128911260362
Epoch: 2025-05-08T17:17Z
Definitive object data (Epoch: 2025-05-08T17:17:15.09Z)
Latitude
-0.00003°
Longitude
-120.28784°
Altitude
835.176 km
Speed
7.411 km/s
True Right ascension
00h 23m 14s
True Declination
0° 00' 00"
Sunlit
Object was in daylight at TLE epoch
Visualization TLE readout
Latitude
68.48812°
Longitude
-102.37686°
Altitude
802.062 km
Speed
7.456 km/s
Apparent Right ascension
01h 31m 32s
Apparent Declination
18° 56' 22"
Sunlit
Object is in daylight
Visualization observer readout
Local Sidereal Time
13:29:44
Azimuth
359.503° N
Elevation
-31.143°
Doppler factor
1
Orbital elements
Apogee altitude
830.326 km
Perigee altitude
733.065 km
Semi-major axis
7,159.832 km
Eccentricity
0.0067921
Inclination
82.8992°
RAAN
5.8118°
Arg. of periapsis
168.0713°
True anomaly
192.04714°
Mean anomaly
192.2104°
Eccentric anomaly
192.12863°
Mean motion
3.58252 °/min
BSTAR
0.00065597
Orbital period
100.49 mins
Loading maneuver chart data...
Loading SW <> Apogee altitude chart data...
Loading historical data...
Loading historical data...
Loading historical data...
Loading historical data...
Loading historical data...
Loading historical data...
Loading historical data...

COSMOS 1275 DEB Visibility forecast

Observer location: undefined°, undefined°

Span
Click to sort rows by Start time (UTC) header in descending order
Start Az.
Max El. time (UTC)
Max El. Az.
Max El.
End time (UTC)
End Az.
6 mins2025-05-09 15:13:05.592Z123.582° SE2025-05-09 15:16:05.592Z89.796° E16.512°2025-05-09 15:19:05.592Z51.951° ENE
9 mins2025-05-09 16:53:05.592Z206.003° SW2025-05-09 16:57:05.592Z269.815° W38.942°2025-05-09 17:02:05.592Z356.303° N
8 mins2025-05-10 03:25:05.592Z3.334° NNE2025-05-10 03:28:05.592Z59.133° ENE41.978°2025-05-10 03:33:05.592Z163.507° S
|